User: anonymous   Login
Location: Unspecified
(52.4292°N, 19.3359°E)
Time: 06:11:17
(UTC+02:00)
Language:

Transit 2A Rocket - Orbit

View from above orbital plane
View from above orbital plane
View from above satellite
View from above satellite

Ground track
Ground track

The orbit data is extracted from the following two-line orbital elements,

1 00047U 60007C   24141.61561127  .00000929  00000-0  22443-3 0  9993
2 00047  66.6652 280.3600 0227267 332.4229  26.4964 14.43554071341388
Epoch (UTC): 20 May 2024 14:46:28
Eccentricity: 0.0227267
inclination: 66.6652°
perigee height: 585 km
apogee height: 909 km
right ascension of ascending node: 280.3600°
argument of perigee: 332.4229°
revolutions per day: 14.43554071
mean anomaly at epoch: 26.4964°
orbit number at epoch: 34138

The dashed part of the orbit path shows where the satellite is in the earth's shadow,  

DLR